Time,TemperatureF,DewpointF,PressureIn,WindDirection,WindDirectionDegrees,WindSpeedMPH,WindSpeedGustMPH,Humidity,HourlyPrecipIn,Conditions,Clouds,dailyrainin,SoftwareType,DateUTC
2013-03-05 00:00:00,63.7,45.2,29.74,North,350,3.0,10.0,51,0.00,,---,0.00,VWS V14.01,2013-03-05 06:00:00,
2013-03-05 00:05:00,63.1,45.2,29.74,NNW,333,3.0,18.0,52,0.00,,---,0.00,VWS V14.01,2013-03-05 06:05:00,
2013-03-05 00:08:00,62.5,45.2,29.75,NW,321,5.0,16.0,53,0.00,,---,0.00,VWS V14.01,2013-03-05 06:08:00,
2013-03-05 00:10:00,62.5,45.2,29.75,NW,321,5.0,16.0,53,0.00,,---,0.00,VWS V14.01,2013-03-05 06:10:00,
2013-03-05 00:13:00,61.7,45.4,29.76,WNW,296,7.0,18.0,55,0.00,,---,0.00,VWS V14.01,2013-03-05 06:13:00,
2013-03-05 00:15:00,61.7,45.4,29.76,WNW,296,7.0,18.0,55,0.00,,---,0.00,VWS V14.01,2013-03-05 06:15:00,
2013-03-05 00:18:00,60.6,45.3,29.78,WNW,290,3.0,15.0,57,0.00,,---,0.00,VWS V14.01,2013-03-05 06:18:00,
2013-03-05 00:20:00,60.6,45.3,29.78,WNW,290,3.0,15.0,57,0.00,,---,0.00,VWS V14.01,2013-03-05 06:20:00,
2013-03-05 00:23:00,59.5,44.3,29.78,NE,42,2.0,15.0,57,0.00,,---,0.00,VWS V14.01,2013-03-05 06:23:00,
2013-03-05 00:25:00,59.5,44.3,29.78,NE,42,2.0,15.0,57,0.00,,---,0.00,VWS V14.01,2013-03-05 06:25:00,
2013-03-05 00:28:00,58.1,43.9,29.78,NW,309,4.0,23.0,59,0.00,,---,0.00,VWS V14.01,2013-03-05 06:28:00,
2013-03-05 00:30:00,58.1,43.9,29.78,NW,309,4.0,23.0,59,0.00,,---,0.00,VWS V14.01,2013-03-05 06:30:00,
2013-03-05 00:33:00,57.2,43.9,29.78,NE,40,6.0,19.0,61,0.00,,---,0.00,VWS V14.01,2013-03-05 06:33:00,
2013-03-05 00:35:00,57.2,43.9,29.78,NE,40,6.0,19.0,61,0.00,,---,0.00,VWS V14.01,2013-03-05 06:35:00,
2013-03-05 00:38:00,56.6,43.8,29.78,NW,320,9.0,15.0,62,0.00,,---,0.00,VWS V14.01,2013-03-05 06:38:00,
2013-03-05 00:40:00,56.6,43.8,29.78,NW,320,9.0,15.0,62,0.00,,---,0.00,VWS V14.01,2013-03-05 06:40:00,
2013-03-05 00:43:00,56.2,43.8,29.80,NNE,13,7.0,20.0,63,0.00,,---,0.00,VWS V14.01,2013-03-05 06:43:00,
2013-03-05 00:45:00,56.2,43.8,29.80,NNE,13,7.0,20.0,63,0.00,,---,0.00,VWS V14.01,2013-03-05 06:45:00,
2013-03-05 00:48:00,56.0,43.6,29.81,NW,323,5.0,18.0,63,0.00,,---,0.00,VWS V14.01,2013-03-05 06:48:00,
2013-03-05 00:50:00,56.0,43.6,29.81,NW,323,5.0,18.0,63,0.00,,---,0.00,VWS V14.01,2013-03-05 06:50:00,
2013-03-05 00:53:00,55.6,43.2,29.82,ESE,107,5.0,15.0,63,0.00,,---,0.00,VWS V14.01,2013-03-05 06:53:00,
2013-03-05 00:55:00,55.6,43.2,29.82,ESE,107,5.0,15.0,63,0.00,,---,0.00,VWS V14.01,2013-03-05 06:55:00,
2013-03-05 00:58:00,55.1,42.8,29.84,NNE,22,8.0,15.0,63,0.00,,---,0.00,VWS V14.01,2013-03-05 06:58:00,
2013-03-05 01:00:00,55.1,42.8,29.84,NNE,22,8.0,15.0,63,0.00,,---,0.00,VWS V14.01,2013-03-05 07:00:00,
2013-03-05 01:03:00,54.5,42.2,29.85,NNE,15,4.0,18.0,63,0.00,,---,0.00,VWS V14.01,2013-03-05 07:03:00,
2013-03-05 01:05:00,54.5,42.2,29.85,NNE,15,4.0,18.0,63,0.00,,---,0.00,VWS V14.01,2013-03-05 07:05:00,
2013-03-05 01:08:00,54.3,42.4,29.87,North,5,7.0,14.0,64,0.00,,---,0.00,VWS V14.01,2013-03-05 07:08:00,
2013-03-05 01:10:00,54.3,42.4,29.87,North,5,7.0,14.0,64,0.00,,---,0.00,VWS V14.01,2013-03-05 07:10:00,
2013-03-05 01:15:00,53.8,41.9,29.87,NNW,338,9.0,22.0,64,0.00,,---,0.00,VWS V14.01,2013-03-05 07:15:00,
2013-03-05 01:20:00,53.5,42.0,29.86,NNE,22,8.0,19.0,65,0.00,,---,0.00,VWS V14.01,2013-03-05 07:20:00,
2013-03-05 01:25:00,52.7,41.7,29.88,NNW,338,8.0,23.0,66,0.00,,---,0.00,VWS V14.01,2013-03-05 07:25:00,
2013-03-05 01:30:00,52.1,41.1,29.89,WNW,292,7.0,15.0,66,0.00,,---,0.00,VWS V14.01,2013-03-05 07:30:00,
2013-03-05 01:35:00,51.7,41.1,29.90,NNW,338,7.0,14.0,67,0.00,,---,0.00,VWS V14.01,2013-03-05 07:35:00,
2013-03-05 01:40:00,51.4,40.8,29.91,NNW,338,7.0,20.0,67,0.00,,---,0.00,VWS V14.01,2013-03-05 07:40:00,
2013-03-05 01:45:00,51.1,40.5,29.92,North,0,8.0,20.0,67,0.00,,---,0.00,VWS V14.01,2013-03-05 07:45:00,
2013-03-05 01:50:00,50.9,40.3,29.92,NNW,338,6.0,16.0,67,0.00,,---,0.00,VWS V14.01,2013-03-05 07:50:00,
2013-03-05 01:55:00,50.7,40.2,29.93,NW,315,8.0,18.0,67,0.00,,---,0.00,VWS V14.01,2013-03-05 07:55:00,
2013-03-05 02:00:00,50.5,40.0,29.93,NNW,338,7.0,14.0,67,0.00,,---,0.00,VWS V14.01,2013-03-05 08:00:00,
2013-03-05 02:05:00,50.4,40.2,29.92,NNW,338,7.0,28.0,68,0.00,,---,0.00,VWS V14.01,2013-03-05 08:05:00,
2013-03-05 02:10:00,50.2,39.7,29.93,NNW,338,9.0,28.0,67,0.00,,---,0.00,VWS V14.01,2013-03-05 08:10:00,
2013-03-05 02:15:00,50.1,40.0,29.94,North,0,8.0,15.0,68,0.00,,---,0.00,VWS V14.01,2013-03-05 08:15:00,
2013-03-05 02:20:00,50.1,40.0,29.93,NNW,338,5.0,16.0,68,0.00,,---,0.00,VWS V14.01,2013-03-05 08:20:00,
2013-03-05 02:25:00,50.0,39.9,29.95,NNW,338,7.0,16.0,68,0.00,,---,0.00,VWS V14.01,2013-03-05 08:25:00,
2013-03-05 02:30:00,49.8,39.3,29.96,NNW,338,6.0,14.0,67,0.00,,---,0.00,VWS V14.01,2013-03-05 08:30:00,
2013-03-05 02:35:00,49.6,38.7,29.95,NNW,338,8.0,19.0,66,0.00,,---,0.00,VWS V14.01,2013-03-05 08:35:00,
2013-03-05 02:40:00,49.5,38.6,29.94,North,0,10.0,21.0,66,0.00,,---,0.00,VWS V14.01,2013-03-05 08:40:00,
2013-03-05 02:45:00,49.4,38.1,29.93,North,0,9.0,21.0,65,0.00,,---,0.00,VWS V14.01,2013-03-05 08:45:00,
2013-03-05 02:50:00,49.3,37.2,29.95,ENE,68,10.0,21.0,63,0.00,,---,0.00,VWS V14.01,2013-03-05 08:50:00,
2013-03-05 02:55:00,49.3,37.2,29.96,NE,45,7.0,26.0,63,0.00,,---,0.00,VWS V14.01,2013-03-05 08:55:00,
2013-03-05 03:00:00,49.3,37.2,29.97,NW,315,7.0,20.0,63,0.00,,---,0.00,VWS V14.01,2013-03-05 09:00:00,
2013-03-05 03:05:00,49.4,36.5,29.98,NNE,22,8.0,19.0,61,0.00,,---,0.00,VWS V14.01,2013-03-05 09:05:00,
2013-03-05 03:10:00,49.3,36.4,30.00,NNE,22,6.0,15.0,61,0.00,,---,0.00,VWS V14.01,2013-03-05 09:10:00,
2013-03-05 03:15:00,49.4,36.1,30.01,NNE,22,8.0,27.0,60,0.00,,---,0.00,VWS V14.01,2013-03-05 09:15:00,
2013-03-05 03:20:00,49.5,35.3,30.05,North,0,8.0,21.0,58,0.00,,---,0.00,VWS V14.01,2013-03-05 09:20:00,
2013-03-05 03:25:00,49.5,35.3,30.05,NNW,338,7.0,15.0,58,0.00,,---,0.00,VWS V14.01,2013-03-05 09:25:00,
2013-03-05 03:30:00,49.5,35.3,30.05,NNW,338,6.0,13.0,58,0.00,,---,0.00,VWS V14.01,2013-03-05 09:30:00,
2013-03-05 03:35:00,49.5,35.3,30.04,NNE,22,6.0,15.0,58,0.00,,---,0.00,VWS V14.01,2013-03-05 09:35:00,
2013-03-05 03:40:00,49.5,34.9,30.03,ENE,68,6.0,14.0,57,0.00,,---,0.00,VWS V14.01,2013-03-05 09:40:00,
2013-03-05 03:45:00,49.4,34.8,30.04,NNW,338,7.0,16.0,57,0.00,,---,0.00,VWS V14.01,2013-03-05 09:45:00,
2013-03-05 03:50:00,49.4,34.4,30.05,NE,45,6.0,20.0,56,0.00,,---,0.00,VWS V14.01,2013-03-05 09:50:00,
2013-03-05 03:55:00,49.5,34.5,30.06,North,0,9.0,16.0,56,0.00,,---,0.00,VWS V14.01,2013-03-05 09:55:00,
2013-03-05 04:00:00,49.5,34.5,30.07,NNW,338,8.0,18.0,56,0.00,,---,0.00,VWS V14.01,2013-03-05 10:00:00,
2013-03-05 04:05:00,49.5,34.5,30.07,NW,315,6.0,14.0,56,0.00,,---,0.00,VWS V14.01,2013-03-05 10:05:00,
2013-03-05 04:10:00,49.5,34.9,30.08,North,0,6.0,16.0,57,0.00,,---,0.00,VWS V14.01,2013-03-05 10:10:00,
2013-03-05 04:15:00,49.5,34.9,30.07,North,0,6.0,19.0,57,0.00,,---,0.00,VWS V14.01,2013-03-05 10:15:00,
2013-03-05 04:20:00,49.4,34.8,30.07,NNW,338,8.0,18.0,57,0.00,,---,0.00,VWS V14.01,2013-03-05 10:20:00,
2013-03-05 04:25:00,49.3,34.7,30.08,North,0,6.0,18.0,57,0.00,,---,0.00,VWS V14.01,2013-03-05 10:25:00,
2013-03-05 04:30:00,49.2,35.1,30.08,North,0,9.0,18.0,58,0.00,,---,0.00,VWS V14.01,2013-03-05 10:30:00,
2013-03-05 04:35:00,49.0,34.9,30.09,North,0,8.0,15.0,58,0.00,,---,0.00,VWS V14.01,2013-03-05 10:35:00,
2013-03-05 04:40:00,48.9,34.8,30.10,East,90,5.0,11.0,58,0.00,,---,0.00,VWS V14.01,2013-03-05 10:40:00,
2013-03-05 04:45:00,48.7,35.0,30.10,NNW,338,6.0,12.0,59,0.00,,---,0.00,VWS V14.01,2013-03-05 10:45:00,
2013-03-05 04:50:00,48.5,34.8,30.10,NNE,22,7.0,14.0,59,0.00,,---,0.00,VWS V14.01,2013-03-05 10:50:00,
2013-03-05 04:55:00,48.4,34.8,30.10,North,0,8.0,15.0,59,0.00,,---,0.00,VWS V14.01,2013-03-05 10:55:00,
2013-03-05 05:00:00,48.2,35.0,30.10,NE,45,4.0,10.0,60,0.00,,---,0.00,VWS V14.01,2013-03-05 11:00:00,
2013-03-05 05:05:00,48.0,35.2,30.10,NNE,22,3.0,12.0,61,0.00,,---,0.00,VWS V14.01,2013-03-05 11:05:00,
2013-03-05 05:10:00,47.8,35.0,30.10,NW,315,5.0,11.0,61,0.00,,---,0.00,VWS V14.01,2013-03-05 11:10:00,
2013-03-05 05:15:00,47.7,34.9,30.10,NW,315,5.0,13.0,61,0.00,,---,0.00,VWS V14.01,2013-03-05 11:15:00,
2013-03-05 05:20:00,47.6,34.8,30.11,North,0,4.0,10.0,61,0.00,,---,0.00,VWS V14.01,2013-03-05 11:20:00,
2013-03-05 05:25:00,47.5,34.7,30.11,NNW,338,5.0,13.0,61,0.00,,---,0.00,VWS V14.01,2013-03-05 11:25:00,
2013-03-05 05:30:00,47.4,34.6,30.11,NNE,22,5.0,11.0,61,0.00,,---,0.00,VWS V14.01,2013-03-05 11:30:00,
2013-03-05 05:35:00,47.3,34.5,30.11,North,0,6.0,16.0,61,0.00,,---,0.00,VWS V14.01,2013-03-05 11:35:00,
2013-03-05 05:40:00,47.3,34.1,30.12,ENE,68,4.0,13.0,60,0.00,,---,0.00,VWS V14.01,2013-03-05 11:40:00,
2013-03-05 05:45:00,47.2,33.6,30.12,NNW,338,5.0,12.0,59,0.00,,---,0.00,VWS V14.01,2013-03-05 11:45:00,
2013-03-05 05:50:00,47.1,33.9,30.13,NNW,338,5.0,12.0,60,0.00,,---,0.00,VWS V14.01,2013-03-05 11:50:00,
2013-03-05 05:55:00,47.0,33.8,30.13,NNW,338,4.0,14.0,60,0.00,,---,0.00,VWS V14.01,2013-03-05 11:55:00,
2013-03-05 06:00:00,46.9,33.3,30.14,North,0,5.0,14.0,59,0.00,,---,0.00,VWS V14.01,2013-03-05 12:00:00,
2013-03-05 06:05:00,46.7,32.7,30.15,North,0,5.0,13.0,58,0.00,,---,0.00,VWS V14.01,2013-03-05 12:05:00,
2013-03-05 06:10:00,46.6,32.2,30.15,North,0,5.0,10.0,57,0.00,,---,0.00,VWS V14.01,2013-03-05 12:10:00,
2013-03-05 06:15:00,46.4,32.0,30.15,NE,45,4.0,12.0,57,0.00,,---,0.00,VWS V14.01,2013-03-05 12:15:00,
2013-03-05 06:20:00,46.3,31.5,30.16,North,0,6.0,18.0,56,0.00,,---,0.00,VWS V14.01,2013-03-05 12:20:00,
2013-03-05 06:25:00,46.1,31.3,30.16,North,0,7.0,16.0,56,0.00,,---,0.00,VWS V14.01,2013-03-05 12:25:00,
2013-03-05 06:30:00,45.9,31.1,30.16,NNE,22,6.0,16.0,56,0.00,,---,0.00,VWS V14.01,2013-03-05 12:30:00,
2013-03-05 06:35:00,45.8,31.0,30.17,North,0,4.0,11.0,56,0.00,,---,0.00,VWS V14.01,2013-03-05 12:35:00,
2013-03-05 06:40:00,45.6,30.8,30.17,NW,315,5.0,13.0,56,0.00,,---,0.00,VWS V14.01,2013-03-05 12:40:00,
2013-03-05 06:45:00,45.5,30.7,30.17,North,0,4.0,12.0,56,0.00,,---,0.00,VWS V14.01,2013-03-05 12:45:00,
2013-03-05 06:50:00,45.3,31.0,30.17,NNW,338,7.0,15.0,57,0.00,,---,0.00,VWS V14.01,2013-03-05 12:50:00,
2013-03-05 06:55:00,45.2,30.9,30.17,North,0,5.0,15.0,57,0.00,,---,0.00,VWS V14.01,2013-03-05 12:55:00,
2013-03-05 07:00:00,45.0,30.7,30.18,NW,315,5.0,11.0,57,0.00,,---,0.00,VWS V14.01,2013-03-05 13:00:00,
2013-03-05 07:05:00,44.9,30.2,30.18,NNW,338,6.0,19.0,56,0.00,,---,0.00,VWS V14.01,2013-03-05 13:05:00,
2013-03-05 07:10:00,44.8,30.1,30.19,NNE,22,6.0,16.0,56,0.00,,---,0.00,VWS V14.01,2013-03-05 13:10:00,
2013-03-05 07:15:00,44.7,30.0,30.19,North,0,5.0,14.0,56,0.00,,---,0.00,VWS V14.01,2013-03-05 13:15:00,
2013-03-05 07:20:00,44.7,30.0,30.20,NNW,338,6.0,18.0,56,0.00,,---,0.00,VWS V14.01,2013-03-05 13:20:00,
2013-03-05 07:25:00,44.7,30.0,30.20,NNW,338,5.0,16.0,56,0.00,,---,0.00,VWS V14.01,2013-03-05 13:25:00,
2013-03-05 07:30:00,44.7,30.0,30.20,NNW,338,6.0,13.0,56,0.00,,---,0.00,VWS V14.01,2013-03-05 13:30:00,
2013-03-05 07:35:00,44.8,30.1,30.21,North,0,6.0,12.0,56,0.00,,---,0.00,VWS V14.01,2013-03-05 13:35:00,
2013-03-05 07:40:00,44.9,30.2,30.21,North,0,6.0,14.0,56,0.00,,---,0.00,VWS V14.01,2013-03-05 13:40:00,
2013-03-05 07:45:00,45.0,29.8,30.21,NNW,338,7.0,16.0,55,0.00,,---,0.00,VWS V14.01,2013-03-05 13:45:00,
2013-03-05 07:50:00,45.2,30.5,30.21,North,0,5.0,13.0,56,0.00,,---,0.00,VWS V14.01,2013-03-05 13:50:00,
2013-03-05 07:55:00,45.4,30.6,30.22,North,0,7.0,16.0,56,0.00,,---,0.00,VWS V14.01,2013-03-05 13:55:00,
2013-03-05 08:00:00,45.5,31.2,30.22,NW,315,6.0,15.0,57,0.00,,---,0.00,VWS V14.01,2013-03-05 14:00:00,
2013-03-05 08:05:00,45.6,30.8,30.22,North,0,7.0,19.0,56,0.00,,---,0.00,VWS V14.01,2013-03-05 14:05:00,
2013-03-05 08:10:00,45.7,31.4,30.22,NNW,338,6.0,14.0,57,0.00,,---,0.00,VWS V14.01,2013-03-05 14:10:00,
2013-03-05 08:15:00,46.0,31.2,30.22,North,0,5.0,18.0,56,0.00,,---,0.00,VWS V14.01,2013-03-05 14:15:00,
2013-03-05 08:20:00,46.0,30.8,30.23,NNW,338,7.0,16.0,55,0.00,,---,0.00,VWS V14.01,2013-03-05 14:20:00,
2013-03-05 08:25:00,46.1,30.4,30.23,NW,315,5.0,14.0,54,0.00,,---,0.00,VWS V14.01,2013-03-05 14:25:00,
2013-03-05 08:30:00,46.4,30.2,30.23,North,0,6.0,15.0,53,0.00,,---,0.00,VWS V14.01,2013-03-05 14:30:00,
2013-03-05 08:35:00,46.7,29.5,30.23,WNW,292,6.0,18.0,51,0.00,,---,0.00,VWS V14.01,2013-03-05 14:35:00,
2013-03-05 08:40:00,46.6,29.5,30.24,NW,315,7.0,15.0,51,0.00,,---,0.00,VWS V14.01,2013-03-05 14:40:00,
2013-03-05 08:45:00,46.7,30.5,30.24,NNW,338,6.0,13.0,53,0.00,,---,0.00,VWS V14.01,2013-03-05 14:45:00,
2013-03-05 08:50:00,46.9,30.2,30.24,NW,315,6.0,16.0,52,0.00,,---,0.00,VWS V14.01,2013-03-05 14:50:00,
2013-03-05 08:55:00,47.4,30.2,30.24,NNW,338,3.0,12.0,51,0.00,,---,0.00,VWS V14.01,2013-03-05 14:55:00,
2013-03-05 09:00:00,47.6,29.9,30.25,West,270,5.0,15.0,50,0.00,,---,0.00,VWS V14.01,2013-03-05 15:00:00,
2013-03-05 09:05:00,47.3,29.6,30.25,NNW,338,7.0,21.0,50,0.00,,---,0.00,VWS V14.01,2013-03-05 15:05:00,
2013-03-05 09:10:00,47.3,29.1,30.25,NNW,338,8.0,18.0,49,0.00,,---,0.00,VWS V14.01,2013-03-05 15:10:00,
2013-03-05 09:15:00,47.3,28.1,30.26,North,0,7.0,21.0,47,0.00,,---,0.00,VWS V14.01,2013-03-05 15:15:00,
2013-03-05 09:20:00,47.6,28.4,30.26,NNW,338,6.0,16.0,47,0.00,,---,0.00,VWS V14.01,2013-03-05 15:20:00,
2013-03-05 09:25:00,47.9,28.7,30.26,NNW,338,6.0,15.0,47,0.00,,---,0.00,VWS V14.01,2013-03-05 15:25:00,
2013-03-05 09:30:00,48.1,27.8,30.26,NNW,338,5.0,13.0,45,0.00,,---,0.00,VWS V14.01,2013-03-05 15:30:00,
2013-03-05 09:35:00,48.2,27.3,30.27,ENE,68,6.0,15.0,44,0.00,,---,0.00,VWS V14.01,2013-03-05 15:35:00,
2013-03-05 09:40:00,48.3,27.4,30.27,North,0,6.0,16.0,44,0.00,,---,0.00,VWS V14.01,2013-03-05 15:40:00,
2013-03-05 09:45:00,48.3,25.7,30.27,North,0,9.0,21.0,41,0.00,,---,0.00,VWS V14.01,2013-03-05 15:45:00,
2013-03-05 09:50:00,48.2,25.0,30.27,NE,45,7.0,19.0,40,0.00,,---,0.00,VWS V14.01,2013-03-05 15:50:00,
2013-03-05 09:55:00,48.0,24.2,30.28,NNE,22,8.0,22.0,39,0.00,,---,0.00,VWS V14.01,2013-03-05 15:55:00,
2013-03-05 10:00:00,47.9,23.5,30.28,WNW,292,9.0,21.0,38,0.00,,---,0.00,VWS V14.01,2013-03-05 16:00:00,
2013-03-05 10:05:00,48.2,23.8,30.28,NNW,338,8.0,18.0,38,0.00,,---,0.00,VWS V14.01,2013-03-05 16:05:00,
2013-03-05 10:10:00,48.3,24.5,30.29,NNW,338,7.0,18.0,39,0.00,,---,0.00,VWS V14.01,2013-03-05 16:10:00,
2013-03-05 10:15:00,48.7,24.2,30.29,NW,315,6.0,13.0,38,0.00,,---,0.00,VWS V14.01,2013-03-05 16:15:00,
2013-03-05 10:20:00,48.8,24.3,30.29,NW,315,7.0,19.0,38,0.00,,---,0.00,VWS V14.01,2013-03-05 16:20:00,
2013-03-05 10:25:00,49.1,24.6,30.29,NNW,338,6.0,14.0,38,0.00,,---,0.00,VWS V14.01,2013-03-05 16:25:00,
2013-03-05 10:30:00,49.2,24.1,30.30,NW,315,7.0,15.0,37,0.00,,---,0.00,VWS V14.01,2013-03-05 16:30:00,
2013-03-05 10:35:00,49.3,24.8,30.30,NW,315,6.0,13.0,38,0.00,,---,0.00,VWS V14.01,2013-03-05 16:35:00,
2013-03-05 10:40:00,49.2,23.4,30.30,NW,315,6.0,15.0,36,0.00,,---,0.00,VWS V14.01,2013-03-05 16:40:00,
2013-03-05 10:45:00,49.3,23.5,30.31,WNW,292,6.0,12.0,36,0.00,,---,0.00,VWS V14.01,2013-03-05 16:45:00,
2013-03-05 10:50:00,49.4,21.5,30.31,NW,315,8.0,15.0,33,0.00,,---,0.00,VWS V14.01,2013-03-05 16:50:00,
2013-03-05 10:55:00,49.1,21.3,30.31,NE,45,7.0,16.0,33,0.00,,---,0.00,VWS V14.01,2013-03-05 16:55:00,
2013-03-05 11:00:00,49.2,22.7,30.31,North,0,6.0,14.0,35,0.00,,---,0.00,VWS V14.01,2013-03-05 17:00:00,
2013-03-05 11:05:00,49.6,23.8,30.31,NW,315,6.0,19.0,36,0.00,,---,0.00,VWS V14.01,2013-03-05 17:05:00,
2013-03-05 11:10:00,49.9,24.7,30.31,NW,315,4.0,15.0,37,0.00,,---,0.00,VWS V14.01,2013-03-05 17:10:00,
2013-03-05 11:15:00,49.7,23.9,30.31,West,270,6.0,20.0,36,0.00,,---,0.00,VWS V14.01,2013-03-05 17:15:00,
2013-03-05 11:20:00,49.5,23.7,30.31,WNW,292,7.0,13.0,36,0.00,,---,0.00,VWS V14.01,2013-03-05 17:20:00,
2013-03-05 11:25:00,49.9,23.4,30.31,WNW,292,6.0,14.0,35,0.00,,---,0.00,VWS V14.01,2013-03-05 17:25:00,
2013-03-05 11:30:00,50.4,23.1,30.31,NNW,338,6.0,15.0,34,0.00,,---,0.00,VWS V14.01,2013-03-05 17:30:00,
2013-03-05 11:35:00,50.7,24.1,30.31,NW,315,5.0,16.0,35,0.00,,---,0.00,VWS V14.01,2013-03-05 17:35:00,
2013-03-05 11:40:00,50.8,22.8,30.31,NW,315,6.0,13.0,33,0.00,,---,0.00,VWS V14.01,2013-03-05 17:40:00,
2013-03-05 11:45:00,51.2,23.1,30.31,WNW,292,5.0,16.0,33,0.00,,---,0.00,VWS V14.01,2013-03-05 17:45:00,
2013-03-05 11:50:00,51.0,23.6,30.31,WNW,292,6.0,15.0,34,0.00,,---,0.00,VWS V14.01,2013-03-05 17:50:00,
2013-03-05 11:55:00,51.2,23.1,30.31,NW,315,6.0,16.0,33,0.00,,---,0.00,VWS V14.01,2013-03-05 17:55:00,
2013-03-05 12:00:00,51.0,22.9,30.31,North,0,7.0,14.0,33,0.00,,---,0.00,VWS V14.01,2013-03-05 18:00:00,
2013-03-05 12:05:00,50.8,22.0,30.31,NW,315,7.0,14.0,32,0.00,,---,0.00,VWS V14.01,2013-03-05 18:05:00,
2013-03-05 12:10:00,50.8,22.8,30.31,NW,315,8.0,16.0,33,0.00,,---,0.00,VWS V14.01,2013-03-05 18:10:00,
2013-03-05 12:15:00,50.8,22.8,30.31,NNW,338,7.0,14.0,33,0.00,,---,0.00,VWS V14.01,2013-03-05 18:15:00,
2013-03-05 12:20:00,50.8,22.0,30.31,NW,315,8.0,19.0,32,0.00,,---,0.00,VWS V14.01,2013-03-05 18:20:00,
2013-03-05 12:25:00,50.8,22.0,30.31,WNW,292,7.0,21.0,32,0.00,,---,0.00,VWS V14.01,2013-03-05 18:25:00,
2013-03-05 12:30:00,51.4,21.8,30.31,WNW,292,6.0,15.0,31,0.00,,---,0.00,VWS V14.01,2013-03-05 18:30:00,
2013-03-05 12:35:00,51.7,21.3,30.31,NW,315,6.0,13.0,30,0.00,,---,0.00,VWS V14.01,2013-03-05 18:35:00,
2013-03-05 12:40:00,51.6,21.2,30.31,NW,315,8.0,19.0,30,0.00,,---,0.00,VWS V14.01,2013-03-05 18:40:00,
2013-03-05 12:45:00,51.4,20.2,30.31,NW,315,8.0,18.0,29,0.00,,---,0.00,VWS V14.01,2013-03-05 18:45:00,
2013-03-05 12:50:00,51.5,20.3,30.31,NW,315,6.0,14.0,29,0.00,,---,0.00,VWS V14.01,2013-03-05 18:50:00,
2013-03-05 12:55:00,51.6,19.6,30.31,North,0,8.0,18.0,28,0.00,,---,0.00,VWS V14.01,2013-03-05 18:55:00,
2013-03-05 13:00:00,51.8,19.8,30.30,NNW,338,6.0,16.0,28,0.00,,---,0.00,VWS V14.01,2013-03-05 19:00:00,
2013-03-05 13:05:00,52.2,19.2,30.30,NNE,22,6.0,19.0,27,0.00,,---,0.00,VWS V14.01,2013-03-05 19:05:00,
2013-03-05 13:10:00,51.8,18.9,30.30,North,0,7.0,16.0,27,0.00,,---,0.00,VWS V14.01,2013-03-05 19:10:00,
2013-03-05 13:15:00,52.1,20.0,30.30,NNW,338,7.0,18.0,28,0.00,,---,0.00,VWS V14.01,2013-03-05 19:15:00,
2013-03-05 13:20:00,52.7,20.5,30.30,NW,315,6.0,11.0,28,0.00,,---,0.00,VWS V14.01,2013-03-05 19:20:00,
2013-03-05 13:25:00,52.6,19.6,30.30,NW,315,8.0,18.0,27,0.00,,---,0.00,VWS V14.01,2013-03-05 19:25:00,
2013-03-05 13:30:00,52.6,18.7,30.30,NW,315,7.0,19.0,26,0.00,,---,0.00,VWS V14.01,2013-03-05 19:30:00,
2013-03-05 13:35:00,52.8,20.6,30.29,NNW,338,6.0,13.0,28,0.00,,---,0.00,VWS V14.01,2013-03-05 19:35:00,
2013-03-05 13:40:00,53.0,20.8,30.29,NW,315,6.0,12.0,28,0.00,,---,0.00,VWS V14.01,2013-03-05 19:40:00,
2013-03-05 13:45:00,53.5,20.4,30.29,NW,315,6.0,12.0,27,0.00,,---,0.00,VWS V14.01,2013-03-05 19:45:00,
2013-03-05 13:50:00,53.5,19.5,30.29,NW,315,7.0,15.0,26,0.00,,---,0.00,VWS V14.01,2013-03-05 19:50:00,
2013-03-05 13:55:00,53.7,19.6,30.29,WNW,292,6.0,15.0,26,0.00,,---,0.00,VWS V14.01,2013-03-05 19:55:00,
2013-03-05 14:00:00,54.0,19.9,30.28,NW,315,5.0,12.0,26,0.00,,---,0.00,VWS V14.01,2013-03-05 20:00:00,
2013-03-05 14:05:00,53.9,18.9,30.28,WNW,292,7.0,16.0,25,0.00,,---,0.00,VWS V14.01,2013-03-05 20:05:00,
2013-03-05 14:10:00,54.0,19.0,30.28,NW,315,6.0,13.0,25,0.00,,---,0.00,VWS V14.01,2013-03-05 20:10:00,
2013-03-05 14:15:00,54.1,20.0,30.28,NW,315,8.0,18.0,26,0.00,,---,0.00,VWS V14.01,2013-03-05 20:15:00,
2013-03-05 14:20:00,54.3,20.2,30.28,WNW,292,6.0,14.0,26,0.00,,---,0.00,VWS V14.01,2013-03-05 20:20:00,
2013-03-05 14:25:00,54.4,20.2,30.27,NW,315,5.0,13.0,26,0.00,,---,0.00,VWS V14.01,2013-03-05 20:25:00,
2013-03-05 14:30:00,54.9,19.8,30.27,NW,315,7.0,15.0,25,0.00,,---,0.00,VWS V14.01,2013-03-05 20:30:00,
2013-03-05 14:35:00,54.8,19.7,30.27,NNE,22,6.0,15.0,25,0.00,,---,0.00,VWS V14.01,2013-03-05 20:35:00,
2013-03-05 14:40:00,54.6,19.5,30.28,NW,315,8.0,19.0,25,0.00,,---,0.00,VWS V14.01,2013-03-05 20:40:00,
2013-03-05 14:45:00,54.4,20.2,30.28,WNW,292,6.0,15.0,26,0.00,,---,0.00,VWS V14.01,2013-03-05 20:45:00,
2013-03-05 14:50:00,54.6,19.5,30.27,NW,315,7.0,16.0,25,0.00,,---,0.00,VWS V14.01,2013-03-05 20:50:00,
2013-03-05 14:55:00,54.6,19.5,30.27,North,0,8.0,16.0,25,0.00,,---,0.00,VWS V14.01,2013-03-05 20:55:00,
2013-03-05 15:00:00,54.5,19.4,30.27,NW,315,5.0,13.0,25,0.00,,---,0.00,VWS V14.01,2013-03-05 21:00:00,
2013-03-05 15:05:00,55.2,20.0,30.27,NW,315,5.0,12.0,25,0.00,,---,0.00,VWS V14.01,2013-03-05 21:05:00,
2013-03-05 15:10:00,55.0,19.8,30.27,NW,315,6.0,12.0,25,0.00,,---,0.00,VWS V14.01,2013-03-05 21:10:00,
2013-03-05 15:15:00,55.0,18.9,30.27,NNW,338,7.0,12.0,24,0.00,,---,0.00,VWS V14.01,2013-03-05 21:15:00,
2013-03-05 15:20:00,55.1,19.9,30.27,NW,315,5.0,13.0,25,0.00,,---,0.00,VWS V14.01,2013-03-05 21:20:00,
2013-03-05 15:25:00,55.5,20.3,30.27,NW,315,6.0,13.0,25,0.00,,---,0.00,VWS V14.01,2013-03-05 21:25:00,
2013-03-05 15:30:00,55.6,19.4,30.26,WNW,292,5.0,15.0,24,0.00,,---,0.00,VWS V14.01,2013-03-05 21:30:00,
2013-03-05 15:35:00,55.5,20.3,30.27,NW,315,7.0,14.0,25,0.00,,---,0.00,VWS V14.01,2013-03-05 21:35:00,
2013-03-05 15:40:00,55.5,20.3,30.27,NW,315,5.0,11.0,25,0.00,,---,0.00,VWS V14.01,2013-03-05 21:40:00,
2013-03-05 15:45:00,55.7,20.4,30.27,WNW,292,5.0,13.0,25,0.00,,---,0.00,VWS V14.01,2013-03-05 21:45:00,
2013-03-05 15:50:00,56.0,20.7,30.26,NW,315,4.0,11.0,25,0.00,,---,0.00,VWS V14.01,2013-03-05 21:50:00,
2013-03-05 15:55:00,56.2,19.9,30.26,WNW,292,7.0,14.0,24,0.00,,---,0.00,VWS V14.01,2013-03-05 21:55:00,
2013-03-05 16:00:00,55.9,19.6,30.27,NW,315,6.0,18.0,24,0.00,,---,0.00,VWS V14.01,2013-03-05 22:00:00,
2013-03-05 16:05:00,56.0,19.7,30.27,NNW,338,6.0,16.0,24,0.00,,---,0.00,VWS V14.01,2013-03-05 22:05:00,
2013-03-05 16:10:00,55.9,19.6,30.26,NNW,338,5.0,12.0,24,0.00,,---,0.00,VWS V14.01,2013-03-05 22:10:00,
2013-03-05 16:15:00,55.7,20.4,30.26,North,0,5.0,12.0,25,0.00,,---,0.00,VWS V14.01,2013-03-05 22:15:00,
2013-03-05 16:20:00,56.0,19.7,30.26,NW,315,6.0,14.0,24,0.00,,---,0.00,VWS V14.01,2013-03-05 22:20:00,
2013-03-05 16:25:00,56.0,20.7,30.26,NW,315,5.0,10.0,25,0.00,,---,0.00,VWS V14.01,2013-03-05 22:25:00,
2013-03-05 16:30:00,56.3,20.0,30.27,NW,315,5.0,13.0,24,0.00,,---,0.00,VWS V14.01,2013-03-05 22:30:00,
2013-03-05 16:35:00,55.9,19.6,30.27,NNE,22,6.0,11.0,24,0.00,,---,0.00,VWS V14.01,2013-03-05 22:35:00,
2013-03-05 16:40:00,56.1,19.8,30.27,NW,315,4.0,11.0,24,0.00,,---,0.00,VWS V14.01,2013-03-05 22:40:00,
2013-03-05 16:45:00,56.1,19.8,30.26,NW,315,5.0,13.0,24,0.00,,---,0.00,VWS V14.01,2013-03-05 22:45:00,
2013-03-05 16:50:00,55.8,19.6,30.26,WNW,292,6.0,13.0,24,0.00,,---,0.00,VWS V14.01,2013-03-05 22:50:00,
2013-03-05 16:55:00,55.7,19.5,30.27,NNW,338,6.0,14.0,24,0.00,,---,0.00,VWS V14.01,2013-03-05 22:55:00,
2013-03-05 17:00:00,55.5,20.3,30.26,NNW,338,7.0,12.0,25,0.00,,---,0.00,VWS V14.01,2013-03-05 23:00:00,
2013-03-05 17:05:00,55.5,19.3,30.27,WNW,292,6.0,12.0,24,0.00,,---,0.00,VWS V14.01,2013-03-05 23:05:00,
2013-03-05 17:10:00,55.7,19.5,30.26,WNW,292,5.0,11.0,24,0.00,,---,0.00,VWS V14.01,2013-03-05 23:10:00,
2013-03-05 17:15:00,55.6,20.4,30.27,NW,315,6.0,15.0,25,0.00,,---,0.00,VWS V14.01,2013-03-05 23:15:00,
2013-03-05 17:20:00,55.6,19.4,30.27,WNW,292,5.0,10.0,24,0.00,,---,0.00,VWS V14.01,2013-03-05 23:20:00,
2013-03-05 17:25:00,55.5,19.3,30.27,NW,315,5.0,12.0,24,0.00,,---,0.00,VWS V14.01,2013-03-05 23:25:00,
2013-03-05 17:30:00,55.1,19.9,30.27,NW,315,5.0,12.0,25,0.00,,---,0.00,VWS V14.01,2013-03-05 23:30:00,
2013-03-05 17:35:00,55.1,19.0,30.27,NNE,22,4.0,11.0,24,0.00,,---,0.00,VWS V14.01,2013-03-05 23:35:00,
2013-03-05 17:40:00,55.0,19.8,30.27,NNW,338,5.0,10.0,25,0.00,,---,0.00,VWS V14.01,2013-03-05 23:40:00,
2013-03-05 17:45:00,54.9,18.8,30.28,NNW,338,5.0,14.0,24,0.00,,---,0.00,VWS V14.01,2013-03-05 23:45:00,
2013-03-05 17:50:00,54.7,19.6,30.27,NNW,338,5.0,10.0,25,0.00,,---,0.00,VWS V14.01,2013-03-05 23:50:00,
2013-03-05 17:55:00,54.5,18.5,30.27,NNW,338,5.0,12.0,24,0.00,,---,0.00,VWS V14.01,2013-03-05 23:55:00,
2013-03-05 18:00:00,54.2,19.2,30.27,North,0,4.0,14.0,25,0.00,,---,0.00,VWS V14.01,2013-03-06 00:00:00,
2013-03-05 18:05:00,54.1,19.1,30.27,ENE,68,3.0,9.0,25,0.00,,---,0.00,VWS V14.01,2013-03-06 00:05:00,
2013-03-05 18:10:00,53.9,19.8,30.27,NW,315,2.0,7.0,26,0.00,,---,0.00,VWS V14.01,2013-03-06 00:10:00,
2013-03-05 18:15:00,53.8,19.7,30.28,WNW,292,2.0,8.0,26,0.00,,---,0.00,VWS V14.01,2013-03-06 00:15:00,
2013-03-05 18:20:00,53.6,19.6,30.28,NW,315,4.0,10.0,26,0.00,,---,0.00,VWS V14.01,2013-03-06 00:20:00,
2013-03-05 18:25:00,53.5,19.5,30.28,North,0,4.0,10.0,26,0.00,,---,0.00,VWS V14.01,2013-03-06 00:25:00,
2013-03-05 18:30:00,53.4,20.3,30.28,North,0,3.0,10.0,27,0.00,,---,0.00,VWS V14.01,2013-03-06 00:30:00,
2013-03-05 18:35:00,53.1,20.0,30.28,North,0,3.0,11.0,27,0.00,,---,0.00,VWS V14.01,2013-03-06 00:35:00,
2013-03-05 18:40:00,53.0,20.8,30.28,NW,315,3.0,11.0,28,0.00,,---,0.00,VWS V14.01,2013-03-06 00:40:00,
2013-03-05 18:45:00,52.9,20.7,30.29,NW,315,3.0,10.0,28,0.00,,---,0.00,VWS V14.01,2013-03-06 00:45:00,
2013-03-05 18:50:00,52.7,20.5,30.29,NW,315,2.0,9.0,28,0.00,,---,0.00,VWS V14.01,2013-03-06 00:50:00,
2013-03-05 18:55:00,52.6,20.4,30.29,NW,315,3.0,9.0,28,0.00,,---,0.00,VWS V14.01,2013-03-06 00:55:00,
2013-03-05 19:00:00,52.4,21.1,30.29,NW,315,2.0,8.0,29,0.00,,---,0.00,VWS V14.01,2013-03-06 01:00:00,
2013-03-05 19:05:00,52.2,20.9,30.29,NNW,338,2.0,6.0,29,0.00,,---,0.00,VWS V14.01,2013-03-06 01:05:00,
2013-03-05 19:10:00,52.1,20.8,30.30,WNW,292,2.0,9.0,29,0.00,,---,0.00,VWS V14.01,2013-03-06 01:10:00,
2013-03-05 19:15:00,52.0,21.5,30.30,NNW,338,1.0,7.0,30,0.00,,---,0.00,VWS V14.01,2013-03-06 01:15:00,
2013-03-05 19:20:00,51.8,22.1,30.30,NNW,338,1.0,5.0,31,0.00,,---,0.00,VWS V14.01,2013-03-06 01:20:00,
2013-03-05 19:25:00,51.5,22.6,30.30,NNW,338,0.0,3.0,32,0.00,,---,0.00,VWS V14.01,2013-03-06 01:25:00,
2013-03-05 19:30:00,51.4,21.8,30.30,NW,315,2.0,9.0,31,0.00,,---,0.00,VWS V14.01,2013-03-06 01:30:00,
2013-03-05 19:35:00,51.4,21.8,30.30,WNW,292,2.0,6.0,31,0.00,,---,0.00,VWS V14.01,2013-03-06 01:35:00,
2013-03-05 19:40:00,51.3,21.7,30.31,NW,315,1.0,7.0,31,0.00,,---,0.00,VWS V14.01,2013-03-06 01:40:00,
2013-03-05 19:45:00,51.2,21.6,30.31,NW,315,1.0,5.0,31,0.00,,---,0.00,VWS V14.01,2013-03-06 01:45:00,
2013-03-05 19:50:00,51.1,21.5,30.31,NW,315,1.0,5.0,31,0.00,,---,0.00,VWS V14.01,2013-03-06 01:50:00,
2013-03-05 19:55:00,50.9,22.1,30.31,NW,315,0.0,2.0,32,0.00,,---,0.00,VWS V14.01,2013-03-06 01:55:00,
2013-03-05 20:00:00,50.6,22.6,30.31,NW,315,0.0,2.0,33,0.00,,---,0.00,VWS V14.01,2013-03-06 02:00:00,
2013-03-05 20:05:00,50.3,22.3,30.31,NW,315,0.0,1.0,33,0.00,,---,0.00,VWS V14.01,2013-03-06 02:05:00,
2013-03-05 20:10:00,50.1,22.1,30.31,NW,315,0.0,3.0,33,0.00,,---,0.00,VWS V14.01,2013-03-06 02:10:00,
2013-03-05 20:15:00,49.8,21.9,30.31,NW,315,0.0,1.0,33,0.00,,---,0.00,VWS V14.01,2013-03-06 02:15:00,
2013-03-05 20:20:00,49.5,22.3,30.31,NW,315,0.0,1.0,34,0.00,,---,0.00,VWS V14.01,2013-03-06 02:20:00,
2013-03-05 20:25:00,49.1,22.6,30.31,NW,315,0.0,0.0,35,0.00,,---,0.00,VWS V14.01,2013-03-06 02:25:00,
2013-03-05 20:30:00,48.7,23.0,30.32,NW,315,0.0,0.0,36,0.00,,---,0.00,VWS V14.01,2013-03-06 02:30:00,
2013-03-05 20:35:00,48.2,22.5,30.32,NW,315,0.0,2.0,36,0.00,,---,0.00,VWS V14.01,2013-03-06 02:35:00,
2013-03-05 20:40:00,47.9,22.2,30.31,NW,315,0.0,5.0,36,0.00,,---,0.00,VWS V14.01,2013-03-06 02:40:00,
2013-03-05 20:45:00,47.9,22.2,30.31,NNW,338,0.0,1.0,36,0.00,,---,0.00,VWS V14.01,2013-03-06 02:45:00,
2013-03-05 20:50:00,47.9,22.2,30.32,NNW,338,0.0,0.0,36,0.00,,---,0.00,VWS V14.01,2013-03-06 02:50:00,
2013-03-05 20:55:00,47.6,22.0,30.32,NNW,338,0.0,0.0,36,0.00,,---,0.00,VWS V14.01,2013-03-06 02:55:00,
2013-03-05 21:00:00,47.4,22.5,30.32,NNW,338,0.0,2.0,37,0.00,,---,0.00,VWS V14.01,2013-03-06 03:00:00,
2013-03-05 21:05:00,47.4,23.1,30.32,NNW,338,0.0,1.0,38,0.00,,---,0.00,VWS V14.01,2013-03-06 03:05:00,
2013-03-05 21:10:00,47.3,23.0,30.32,NNW,338,0.0,2.0,38,0.00,,---,0.00,VWS V14.01,2013-03-06 03:10:00,
2013-03-05 21:15:00,47.2,23.5,30.32,NNW,338,0.0,2.0,39,0.00,,---,0.00,VWS V14.01,2013-03-06 03:15:00,
2013-03-05 21:20:00,47.2,24.1,30.32,NNW,338,0.0,2.0,40,0.00,,---,0.00,VWS V14.01,2013-03-06 03:20:00,
2013-03-05 21:25:00,47.1,24.0,30.33,NNW,338,0.0,2.0,40,0.00,,---,0.00,VWS V14.01,2013-03-06 03:25:00,
2013-03-05 21:30:00,47.0,24.5,30.33,NNW,338,0.0,1.0,41,0.00,,---,0.00,VWS V14.01,2013-03-06 03:30:00,
2013-03-05 21:35:00,46.9,24.5,30.33,NNW,338,0.0,0.0,41,0.00,,---,0.00,VWS V14.01,2013-03-06 03:35:00,
2013-03-05 21:40:00,46.7,24.8,30.33,NNW,338,0.0,1.0,42,0.00,,---,0.00,VWS V14.01,2013-03-06 03:40:00,
2013-03-05 21:45:00,46.4,25.1,30.33,NNW,338,0.0,1.0,43,0.00,,---,0.00,VWS V14.01,2013-03-06 03:45:00,
2013-03-05 21:50:00,46.1,24.3,30.34,NNW,338,0.0,1.0,42,0.00,,---,0.00,VWS V14.01,2013-03-06 03:50:00,
2013-03-05 21:55:00,45.8,24.6,30.34,NNW,338,0.0,0.0,43,0.00,,---,0.00,VWS V14.01,2013-03-06 03:55:00,
2013-03-05 22:00:00,45.5,24.3,30.34,NNW,338,0.0,1.0,43,0.00,,---,0.00,VWS V14.01,2013-03-06 04:00:00,
2013-03-05 22:05:00,45.2,24.6,30.34,NNW,338,0.0,0.0,44,0.00,,---,0.00,VWS V14.01,2013-03-06 04:05:00,
2013-03-05 22:10:00,44.8,25.3,30.34,NNW,338,0.0,0.0,46,0.00,,---,0.00,VWS V14.01,2013-03-06 04:10:00,
2013-03-05 22:15:00,44.3,24.8,30.34,NNW,338,0.0,0.0,46,0.00,,---,0.00,VWS V14.01,2013-03-06 04:15:00,
2013-03-05 22:20:00,44.0,24.6,30.34,NNW,338,0.0,0.0,46,0.00,,---,0.00,VWS V14.01,2013-03-06 04:20:00,
2013-03-05 22:25:00,43.8,24.4,30.34,NNW,338,0.0,1.0,46,0.00,,---,0.00,VWS V14.01,2013-03-06 04:25:00,
2013-03-05 22:30:00,43.7,24.3,30.35,NNW,338,0.0,0.0,46,0.00,,---,0.00,VWS V14.01,2013-03-06 04:30:00,
2013-03-05 22:35:00,43.6,24.2,30.35,NNW,338,0.0,0.0,46,0.00,,---,0.00,VWS V14.01,2013-03-06 04:35:00,
2013-03-05 22:40:00,43.3,24.4,30.35,NNW,338,0.0,0.0,47,0.00,,---,0.00,VWS V14.01,2013-03-06 04:40:00,
2013-03-05 22:45:00,42.9,24.6,30.35,NNW,338,0.0,0.0,48,0.00,,---,0.00,VWS V14.01,2013-03-06 04:45:00,
2013-03-05 22:50:00,42.6,24.3,30.35,NNW,338,0.0,0.0,48,0.00,,---,0.00,VWS V14.01,2013-03-06 04:50:00,
2013-03-05 22:55:00,42.2,24.4,30.34,NNW,338,0.0,0.0,49,0.00,,---,0.00,VWS V14.01,2013-03-06 04:55:00,
2013-03-05 23:00:00,42.1,24.3,30.34,NNW,338,0.0,0.0,49,0.00,,---,0.00,VWS V14.01,2013-03-06 05:00:00,
2013-03-05 23:05:00,42.2,24.9,30.35,NNW,338,0.0,0.0,50,0.00,,---,0.00,VWS V14.01,2013-03-06 05:05:00,
2013-03-05 23:10:00,42.3,25.0,30.35,NNW,338,0.0,0.0,50,0.00,,---,0.00,VWS V14.01,2013-03-06 05:10:00,
2013-03-05 23:15:00,42.2,24.9,30.34,NNW,338,0.0,0.0,50,0.00,,---,0.00,VWS V14.01,2013-03-06 05:15:00,
2013-03-05 23:20:00,41.9,25.6,30.35,NNW,338,0.0,0.0,52,0.00,,---,0.00,VWS V14.01,2013-03-06 05:20:00,
2013-03-05 23:25:00,41.6,24.8,30.35,NNW,338,0.0,0.0,51,0.00,,---,0.00,VWS V14.01,2013-03-06 05:25:00,
2013-03-05 23:30:00,41.4,24.6,30.35,NNW,338,0.0,1.0,51,0.00,,---,0.00,VWS V14.01,2013-03-06 05:30:00,
2013-03-05 23:35:00,41.3,24.5,30.35,NNW,338,0.0,1.0,51,0.00,,---,0.00,VWS V14.01,2013-03-06 05:35:00,
2013-03-05 23:40:00,41.3,24.5,30.35,NNW,338,0.0,0.0,51,0.00,,---,0.00,VWS V14.01,2013-03-06 05:40:00,
2013-03-05 23:45:00,41.3,24.5,30.35,NNW,338,0.0,0.0,51,0.00,,---,0.00,VWS V14.01,2013-03-06 05:45:00,
2013-03-05 23:50:00,41.2,24.9,30.36,NNW,338,0.0,1.0,52,0.00,,---,0.00,VWS V14.01,2013-03-06 05:50:00,
2013-03-05 23:55:00,41.1,25.3,30.36,NNW,338,0.0,0.0,53,0.00,,---,0.00,VWS V14.01,2013-03-06 05:55:00,